Belize, Belize

1:22 AM CST on March 25, 2017 (GMT -0600)
Philip S W Goldson International

Weather History for MZBZ - May, 2014

Change the Weather History Date:

Wednesday, May 7, 2014

  Actual Average Record
Temperature  
Mean Temperature 82 °F -  
Max Temperature 87 °F 90 °F 91 °F (2003)
Min Temperature 78 °F 76 °F 69 °F (2016)
Cooling Degree Days 18    
Growing Degree Days 32 (Base 50)    
Moisture  
Dew Point 75 °F    
Average Humidity 74    
Maximum Humidity 83    
Minimum Humidity 62    
Precipitation  
Precipitation 0.00 in 0.19 in - ()
Sea Level Pressure  
Sea Level Pressure 29.90 in    
Wind  
Wind Speed 7 mph ()    
Max Wind Speed 14 mph    
Max Gust Speed -    
Visibility 8.3 miles    
Events Rain    
Averages and records for this station are not official NWS values.
T = Trace of Precipitation, MM = Missing Value Source: Averaged Metar Reports

Daily Weather History Graph

Daily Weather History Graph

Search for Another Location

Airport or City:

Trip Planner

Search our weather history database for the weather conditions in past years. The results will help you decide how hot, cold, wet, or windy it might be!

Date:

Astronomy

May. 07, 2014 Rise Set
Actual Time 5:24 AM CST 6:15 PM CST
Civil Twilight 5:01 AM CST 6:38 PM CST
Nautical Twilight 4:34 AM CST 7:05 PM CST
Astronomical Twilight 4:06 AM CST 7:33 PM CST
Moon 12:18 PM CST (5/7) 12:21 AM CST (5/7)
Length of Visible Light 13h 37m
Length of Day
12h 51m
First Quarter, 56% of the Moon is Illuminated
May 7
First Quarter
May 14
Full
May 21
Last Quarter
May 28
New
Jun 5
First Quarter

Hourly Weather History & Observations

Time (CST) Temp. Heat Index Dew Point Humidity Pressure Visibility Wind Dir Wind Speed Gust Speed Precip Events Conditions
12:00 AM 79 °F - 73 °F 78% 29.89 in 12 mi ESE 4.6 mph - -   Scattered Clouds
3:00 AM 80 °F - 73 °F 75% 29.86 in 12 mi ESE 4.6 mph - -   Scattered Clouds
5:00 AM 78.8 °F - 73.4 °F 83% 29.87 in 6.2 mi East 4.6 mph - N/A   Scattered Clouds
6:00 AM 80 °F - 74 °F 77% 29.89 in 12 mi East 4.6 mph - -   Partly Cloudy
6:00 AM 78.8 °F - 73.4 °F 83% 29.88 in 6.2 mi East 4.6 mph - N/A   Scattered Clouds
7:00 AM 82.4 °F 89.5 °F 75.2 °F 79% 29.90 in 6.2 mi ESE 6.9 mph - N/A   Scattered Clouds
8:00 AM 82.4 °F 89.5 °F 75.2 °F 79% 29.92 in 6.2 mi ESE 8.1 mph - N/A   Mostly Cloudy
9:00 AM 84 °F - 76 °F 70% 29.94 in 12 mi ESE 8.1 mph - -   Mostly Cloudy
9:00 AM 84.2 °F 92.3 °F 75.2 °F 74% 29.93 in 6.2 mi ESE 8.1 mph - N/A   Scattered Clouds
10:00 AM 86.0 °F 95.1 °F 75.2 °F 70% 29.93 in 6.2 mi ESE 8.1 mph - N/A   Scattered Clouds
11:00 AM 86.0 °F 95.1 °F 75.2 °F 70% 29.93 in 6.2 mi East 10.4 mph - N/A   Scattered Clouds
12:00 PM 85 °F - 76 °F 68% 29.93 in 12 mi East 12.7 mph - - Rain Light Rain Showers
12:00 PM 84.2 °F 92.3 °F 75.2 °F 74% 29.92 in 6.2 mi East 12.7 mph - N/A Rain Light Rain Showers
1:00 PM 86.0 °F 95.1 °F 75.2 °F 70% 29.90 in 6.2 mi East 12.7 mph - N/A   Mostly Cloudy
2:00 PM 87.8 °F 97.6 °F 75.2 °F 66% 29.88 in 6.2 mi East 12.7 mph - N/A   Mostly Cloudy
3:00 PM 86 °F - 75 °F 62% 29.88 in 12 mi East 13.8 mph - -   Partly Cloudy
3:00 PM 86.0 °F 95.1 °F 75.2 °F 70% 29.88 in 6.2 mi East 13.8 mph - N/A   Scattered Clouds
4:00 PM 86.0 °F 95.1 °F 75.2 °F 70% 29.87 in 6.2 mi East 11.5 mph - N/A   Scattered Clouds
5:00 PM 84.2 °F 92.3 °F 75.2 °F 74% 29.87 in 6.2 mi East 9.2 mph - N/A   Scattered Clouds
6:00 PM 83 °F - 76 °F 73% 29.89 in 12 mi East 9.2 mph - -   Partly Cloudy
6:00 PM 82.4 °F 89.5 °F 75.2 °F 79% 29.88 in 6.2 mi East 9.2 mph - N/A   Mostly Cloudy
9:00 PM 82 °F - 75 °F 73% 29.92 in 12 mi East 8.1 mph - -   Partly Cloudy